Location: Unspecified
(50.7693°N, 0.0000°E)
Time: 17:06:50
(UTC+00:00)

SR - Pass Details

Date: 28 June 2019
Orbit: 580 x 876 km, 66.7° (Epoch: 21 July)

Event Time Altitude Azimuth Distance (km) Brightness Sun altitude
Rises 03:16:41 0° 232° (SW) 2,791 - -4.6°
Exits shadow 03:17:54 - 234° (SW) 2,307 ? -4.4°
Reaches altitude 10° 03:18:56 10° 237° (WSW) 1,902 ? -4.3°
Maximum altitude 03:23:04 50° 314° (NW) 763 ? -3.9°
Drops below altitude 10° 03:27:24 10° 31° (NNE) 1,995 ? -3.4°
Sets 03:29:49 0° 36° (NE) 2,945 ? -3.1°
